ADF AIRWAYS. MIAMI FLORIDA’S PREMIER FLIGHT TRAINING ACADEMY

Thank you for visiting ADF Airways. Located in Miami, Florida, ADF airways is a premier Flight Training school dedicated to helping those who want to learn how to fly. Whether you are a new student seeking a license to fly for fun, or an advanced pilot looking to get your ATP rating, we’re confident ADF Airways will exceed your expectations!

 

OVER 3 DECADES OF EXPERIENCE WITH A PERSONAL TOUCH

ADF Airways has been in the business of helping pilots since 1986. We take an individual approach to flight training, and can tailor your experience at whatever pace you choose. Our instructors have a combined experience of well over 40 years in the business, and we’re sure we will be able to help you live your dream. ADF Airways is :

  • An FAA-approved Part 141 Flight Academy (Part 61 training available)
  • Approved by the Department of Veterans Affairs (VA)
  • An experiecnced leader in helping students attatin a full range of ratings from Private Pilot to Airline Transport Pilot with Jet Transition training.
  • A strong partner that assists  foreign students to gain FAA ratings and student visas.
  • A quality centered organization that provides experienced Flight Instructors
  • A large provider of a wide range of single and multi-engine aircraft.

ADF Airways has been providing quality Flight instruction for over 3 decades. Established in 1986, we are located at the Kendall-Tamiami Executive Airport (TMB) in Miami, Florida. We have grown into an institution of more than 200 active students. ADF Airways is dedicated to giving each person the personal attention he or she deserves. Our experienced flight instructor staff truly enjoys teaching and giving their undivided attention to the wants and needs of each student. They here just to to help you succeed!

 

 

Our Programs and Services

ADF Airways offers a variety of programs to suit your needs. Click on any of the links below for more information

Private Pilot Course

Foreign License Conversion

Instrument Rating Course

Jet Transition Program

Commercial Pilot Course

CFI Course

FAA Testing Center

Facebook By Weblizar Powered By Weblizar

METARS

KTMB 270053Z 06012KT 10SM CLR 24/18 A3013 RMK AO2 SLP202 T02440183

KOPF 270053Z 05011KT 10SM SCT037 SCT046 BKN060 25/18 A3014 RMK AO2 RAB31E45 SLP208 P0000 T02500183

KFLL 270053Z 06016KT 10SM FEW028 FEW075 24/18 A3013 RMK AO2 SLP203 T02390183

TAF INFORMATION

TAF AMD KTMB 262105Z 2621/2718 08008KT P6SM SCT045 FM270000 08006KT P6SM SCT030 BKN050 FM271400 11015KT P6SM SCT030

TAF AMD KOPF 262105Z 2621/2718 06012KT P6SM SCT035 FM270000 08010KT P6SM SCT030 BKN050 FM271400 11015KT P6SM SCT030

TAF AMD KFLL 262105Z 2621/2718 05012KT P6SM SCT035 FM270000 08010KT P6SM SCT030 BKN050 FM271400 11015KT P6SM SCT030

SO MANY GRADUATES, SO MANY DREAMS MADE REALITY

ADF Airways has graduated many students over its 30 plus years in the business. The above gallery shows just a sample of our most recent graduates. Click here to see our gallery of graduates page.

PARTNERS